Location: Artiguedieu
(43.5000°N, 0.5454°E)
Time: 12:40:59
(UTC+00:00)

Cosmos 2218 Rocket - Visible Passes

Search period start: 17 April 2021 00:00
Search period end: 27 April 2021 00:00
Orbit: 955 x 1007 km, 82.9° (Epoch: 16 April)

Date Brightness Start Highest point End Pass type
(mag) Time Alt. Az. Time Alt. Az. Time Alt. Az.
17 Apr 5.0 00:58:40 10° N 01:04:19 36° ENE 01:04:51 36° E visible
17 Apr 4.6 02:44:14 10° NNW 02:49:37 35° W 02:49:37 35° W visible
17 Apr 6.5 23:44:28 10° ENE 23:44:46 10° ENE 23:45:06 10° ENE visible
18 Apr 4.1 01:25:24 10° N 01:31:33 66° E 01:31:33 66° E visible
18 Apr 5.4 03:12:14 10° NW 03:16:19 19° W 03:16:19 19° W visible
19 Apr 5.9 00:08:12 10° NNE 00:12:30 19° ENE 00:13:30 18° E visible
19 Apr 3.9 01:52:28 10° NNW 01:58:16 68° WNW 01:58:16 68° WNW visible
20 Apr 5.1 00:34:24 10° N 00:39:58 34° ENE 00:40:14 34° ENE visible
20 Apr 4.6 02:19:52 10° NNW 02:25:00 37° WNW 02:25:00 37° WNW visible
21 Apr 4.3 01:01:07 10° N 01:07:00 61° ENE 01:07:00 61° ENE visible
21 Apr 5.4 02:47:46 10° NW 02:51:46 21° WNW 02:51:46 21° WNW visible
21 Apr 5.9 23:44:01 10° NNE 23:48:08 18° ENE 23:48:59 18° ENE visible
22 Apr 4.0 01:28:09 10° NNW 01:33:46 69° NW 01:33:46 69° NW visible
22 Apr 6.0 03:17:44 10° WNW 03:18:32 10° WNW 03:18:32 10° WNW visible
23 Apr 5.2 00:10:09 10° N 00:15:38 32° ENE 00:15:47 32° ENE visible
23 Apr 4.6 01:55:30 10° NNW 02:00:33 39° WNW 02:00:33 39° WNW visible
24 Apr 4.4 00:36:49 10° N 00:42:35 57° ENE 00:42:35 57° ENE visible
24 Apr 5.4 02:23:20 10° NW 02:27:22 22° WNW 02:27:22 22° WNW visible
24 Apr 5.9 23:19:52 10° NNE 23:23:47 17° ENE 23:24:38 17° ENE visible
25 Apr 4.0 01:03:49 10° N 01:09:24 71° NW 01:09:24 71° NW visible
25 Apr 6.0 02:52:38 10° WNW 02:54:10 11° WNW 02:54:10 11° WNW visible
25 Apr 5.2 23:45:54 10° NNE 23:51:19 30° ENE 23:51:27 30° ENE visible
26 Apr 4.6 01:31:08 10° NNW 01:36:14 42° WNW 01:36:14 42° WNW visible
